This is the latest recevied weather packets stored in our database for station/object VK5TRM-13. If no packets are shown the sender has not sent any weather packets the latest 10 day(s).
| Time | Temp. | Humidity | Pressure | Rain* | Wind** | Luminosity | Snow |
|---|---|---|---|---|---|---|---|
| 1778131806 | 16.11° C | 40% | 1028.5 hPa | 0 mm | - | - | - |
| 1778130904 | 16.11° C | 40% | 1028.5 hPa | 0 mm | - | - | - |
| 1778130005 | 16.67° C | 40% | 1028.7 hPa | 0 mm | - | - | - |
| 1778129105 | 16.67° C | 40% | 1028.7 hPa | 0 mm | - | - | - |
| 1778128204 | 15.56° C | 45% | 1029.1 hPa | 0 mm | - | - | - |
| 1778127304 | 15.56° C | 45% | 1029.1 hPa | 0 mm | - | - | - |
| 1778126404 | 15.56° C | 44% | 1029.2 hPa | 0 mm | - | - | - |
| 1778125504 | 15.56° C | 44% | 1029.2 hPa | 0 mm | - | - | - |
| 1778124605 | 15° C | 45% | 1029.5 hPa | 0 mm | - | - | - |
| 1778123705 | 15° C | 45% | 1029.5 hPa | 0 mm | - | - | - |
| 1778122804 | 15.56° C | 45% | 1029.6 hPa | 0 mm | - | - | - |
| 1778121904 | 15.56° C | 45% | 1029.6 hPa | 0 mm | - | - | - |
| 1778121005 | 14.44° C | 46% | 1030.1 hPa | 0 mm | - | - | - |
| 1778120105 | 14.44° C | 46% | 1030.1 hPa | 0 mm | - | - | - |
| 1778119204 | 13.89° C | 46% | 1030.1 hPa | 0 mm | - | - | - |
| 1778118304 | 13.89° C | 46% | 1030.1 hPa | 0 mm | - | - | - |
| 1778117405 | 13.33° C | 50% | 1030.3 hPa | 0 mm | - | - | - |
| 1778116505 | 13.33° C | 50% | 1030.3 hPa | 0 mm | - | - | - |
| 1778115605 | 12.78° C | 50% | 1030.2 hPa | 0 mm | - | - | - |
| 1778114704 | 12.78° C | 50% | 1030.2 hPa | 0 mm | - | - | - |
| 1778113804 | 12.22° C | 53% | 1030 hPa | 0 mm | - | - | - |
| 1778112904 | 12.22° C | 53% | 1030 hPa | 0 mm | - | - | - |
| 1778112005 | 11.67° C | 62% | 1029.9 hPa | 0.51 mm | - | - | - |
| 1778111105 | 11.67° C | 62% | 1029.9 hPa | 0.51 mm | - | - | - |
| 1778110205 | 10.56° C | 75% | 1029.7 hPa | 0.51 mm | - | - | - |
* Rain since midnight (hover to see other rain measurements)
** Current wind speed in m/s (hover to see current wind gust speed)